Total_Precipitation_Accumulation
0.10 0.08 0.08 0.07 0.05 0.05 0.04 0.04 0.04 0.03 0.03 0.04 0.04 0.04 0.03 0.03 0.03 0.05 0.06 0.07 0.07 0.07 0.07 0.08 0.07 0.08 0.09 0.09 0.10 0.11 0.13 0.19 0.22 0.11 0.05 0.06 0.11 0.18 0.26 0.29 0.30 0.28 0.25
0.08 0.07 0.05 0.04 0.04 0.04 0.03 0.03 0.03 0.04 0.04 0.04 0.04 0.04 0.03 0.03 0.05 0.06 0.07 0.06 0.07 0.07 0.07 0.07 0.07 0.07 0.08 0.07 0.08 0.09 0.11 0.16 0.24 0.20 0.10 0.06 0.09 0.15 0.20 0.22 0.21 0.20 0.22
0.06 0.04 0.03 0.03 0.03 0.03 0.03 0.04 0.04 0.04 0.05 0.05 0.04 0.04 0.05 0.05 0.07 0.06 0.06 0.06 0.06 0.06 0.06 0.07 0.08 0.08 0.07 0.06 0.08 0.10 0.12 0.16 0.22 0.24 0.14 0.10 0.13 0.19 0.26 0.26 0.22 0.26 0.25
0.04 0.03 0.03 0.03 0.04 0.04 0.05 0.05 0.05 0.06 0.06 0.06 0.06 0.05 0.06 0.06 0.05 0.04 0.03 0.03 0.04 0.04 0.05 0.07 0.08 0.09 0.09 0.11 0.12 0.13 0.17 0.19 0.20 0.21 0.16 0.11 0.14 0.18 0.25 0.32 0.32 0.29 0.28
0.06 0.05 0.06 0.05 0.06 0.07 0.08 0.09 0.09 0.09 0.08 0.07 0.07 0.06 0.05 0.04 0.02 0.00 0.00 0.01 0.01 0.02 0.04 0.07 0.08 0.09 0.13 0.15 0.15 0.16 0.21 0.24 0.25 0.26 0.22 0.18 0.16 0.21 0.26 0.30 0.31 0.32 0.28
0.09 0.10 0.10 0.10 0.11 0.12 0.12 0.12 0.11 0.10 0.08 0.06 0.04 0.02 0.02 0.01 0.00 0.00 0.00 0.00 0.01 0.02 0.05 0.06 0.04 0.04 0.05 0.06 0.11 0.17 0.24 0.29 0.33 0.35 0.31 0.25 0.18 0.20 0.28 0.35 0.36 0.37 0.31
0.18 0.17 0.15 0.15 0.15 0.14 0.12 0.10 0.08 0.06 0.04 0.03 0.02 0.01 0.01 0.01 0.00 0.00 0.00 0.00 0.02 0.04 0.07 0.06 0.04 0.03 0.05 0.08 0.11 0.14 0.18 0.24 0.34 0.41 0.38 0.27 0.23 0.26 0.39 0.49 0.44 0.42 0.40
0.21 0.20 0.18 0.16 0.15 0.12 0.09 0.07 0.05 0.03 0.03 0.02 0.02 0.01 0.02 0.01 0.00 0.00 0.00 0.01 0.02 0.04 0.05 0.06 0.07 0.06 0.07 0.11 0.12 0.16 0.17 0.19 0.28 0.35 0.36 0.32 0.33 0.36 0.44 0.48 0.44 0.44 0.35
0.21 0.17 0.13 0.10 0.07 0.06 0.04 0.03 0.02 0.02 0.02 0.01 0.01 0.02 0.02 0.03 0.00 0.00 0.00 0.01 0.02 0.02 0.03 0.04 0.06 0.07 0.09 0.12 0.16 0.22 0.23 0.29 0.46 0.64 0.64 0.58 0.59 0.58 0.48 0.40 0.42 0.45 0.41
0.11 0.07 0.05 0.03 0.02 0.02 0.02 0.02 0.02 0.02 0.01 0.01 0.01 0.02 0.03 0.04 0.01 0.00 0.01 0.02 0.02 0.02 0.02 0.02 0.05 0.08 0.10 0.14 0.18 0.27 0.34 0.43 0.65 0.84 0.75 0.67 0.59 0.57 0.54 0.42 0.45 0.55 0.51
0.04 0.02 0.01 0.01 0.01 0.01 0.01 0.01 0.02 0.01 0.01 0.01 0.02 0.02 0.03 0.03 0.02 0.00 0.01 0.02 0.04 0.04 0.04 0.06 0.09 0.14 0.14 0.16 0.24 0.35 0.51 0.61 0.76 0.89 0.73 0.54 0.45 0.38 0.38 0.41 0.44 0.45 0.42
0.01 0.01 0.01 0.01 0.00 0.00 0.01 0.01 0.01 0.01 0.01 0.01 0.01 0.02 0.02 0.03 0.02 0.01 0.00 0.01 0.03 0.06 0.11 0.13 0.18 0.22 0.20 0.24 0.35 0.51 0.67 0.77 0.76 0.76 0.61 0.44 0.35 0.33 0.35 0.34 0.29 0.27 0.28
0.01 0.01 0.01 0.01 0.00 0.00 0.00 0.00 0.01 0.01 0.01 0.01 0.02 0.02 0.02 0.03 0.03 0.01 0.01 0.02 0.04 0.08 0.16 0.26 0.29 0.28 0.33 0.41 0.57 0.73 0.79 0.77 0.73 0.62 0.50 0.41 0.30 0.26 0.26 0.26 0.23 0.22 0.24
0.01 0.01 0.02 0.01 0.01 0.00 0.00 0.00 0.01 0.01 0.01 0.02 0.02 0.03 0.04 0.04 0.04 0.03 0.03 0.04 0.06 0.08 0.13 0.26 0.36 0.39 0.50 0.64 0.74 0.78 0.78 0.81 0.72 0.54 0.44 0.36 0.28 0.24 0.22 0.21 0.21 0.21 0.25
0.01 0.01 0.01 0.01 0.01 0.01 0.00 0.00 0.01 0.01 0.01 0.02 0.03 0.04 0.07 0.08 0.05 0.05 0.07 0.08 0.10 0.14 0.16 0.20 0.24 0.33 0.49 0.63 0.72 0.74 0.73 0.74 0.69 0.54 0.44 0.36 0.30 0.26 0.24 0.21 0.19 0.20 0.24
0.01 0.01 0.01 0.00 0.00 0.00 0.01 0.01 0.01 0.00 0.00 0.01 0.02 0.04 0.05 0.07 0.05 0.04 0.06 0.09 0.13 0.18 0.19 0.25 0.34 0.43 0.54 0.65 0.72 0.77 0.73 0.66 0.60 0.54 0.47 0.40 0.34 0.29 0.27 0.23 0.20 0.20 0.23
0.00 0.01 0.00 0.00 0.00 0.00 0.01 0.02 0.04 0.03 0.02 0.01 0.01 0.03 0.03 0.04 0.04 0.03 0.04 0.07 0.10 0.16 0.20 0.33 0.46 0.54 0.61 0.65 0.67 0.67 0.69 0.66 0.57 0.50 0.45 0.41 0.35 0.29 0.26 0.24 0.21 0.20 0.20
0.00 0.00 0.00 0.00 0.00 0.01 0.01 0.02 0.03 0.05 0.06 0.06 0.03 0.02 0.03 0.04 0.06 0.05 0.05 0.05 0.07 0.14 0.26 0.41 0.52 0.58 0.62 0.65 0.63 0.60 0.61 0.60 0.53 0.45 0.40 0.36 0.32 0.27 0.24 0.22 0.19 0.15 0.14
0.00 0.00 0.00 0.00 0.00 0.00 0.01 0.02 0.03 0.04 0.05 0.05 0.04 0.02 0.04 0.06 0.07 0.08 0.09 0.07 0.12 0.19 0.30 0.42 0.50 0.53 0.54 0.55 0.55 0.53 0.53 0.53 0.48 0.42 0.38 0.36 0.32 0.26 0.22 0.17 0.13 0.11 0.10
0.00 0.00 0.00 0.00 0.00 0.00 0.01 0.01 0.02 0.04 0.04 0.05 0.05 0.04 0.05 0.08 0.09 0.11 0.10 0.11 0.14 0.21 0.29 0.39 0.46 0.46 0.44 0.41 0.40 0.40 0.41 0.40 0.39 0.37 0.35 0.33 0.29 0.25 0.20 0.15 0.11 0.09 0.08
0.01 0.00 0.00 0.00 0.00 0.00 0.00 0.01 0.01 0.02 0.03 0.04 0.04 0.06 0.11 0.12 0.15 0.18 0.20 0.22 0.23 0.25 0.28 0.31 0.36 0.38 0.38 0.34 0.31 0.28 0.28 0.30 0.30 0.29 0.28 0.25 0.23 0.20 0.16 0.12 0.09 0.06 0.05
0.01 0.01 0.00 0.00 0.00 0.00 0.00 0.00 0.00 0.01 0.02 0.02 0.03 0.05 0.12 0.12 0.15 0.21 0.26 0.29 0.32 0.31 0.28 0.28 0.29 0.31 0.30 0.29 0.27 0.24 0.23 0.23 0.23 0.22 0.22 0.20 0.17 0.14 0.11 0.08 0.05 0.04 0.03
0.00 0.01 0.00 0.00 0.00 0.00 0.00 0.00 0.00 0.00 0.01 0.01 0.02 0.04 0.07 0.11 0.17 0.24 0.31 0.32 0.32 0.32 0.28 0.25 0.28 0.31 0.29 0.24 0.22 0.21 0.20 0.20 0.19 0.19 0.20 0.18 0.15 0.11 0.08 0.05 0.03 0.02 0.02
0.00 0.00 0.00 0.00 0.00 0.00 0.00 0.00 0.00 0.00 0.00 0.00 0.01 0.03 0.05 0.09 0.14 0.21 0.27 0.31 0.33 0.33 0.33 0.33 0.34 0.33 0.29 0.23 0.20 0.18 0.18 0.19 0.18 0.20 0.19 0.16 0.12 0.09 0.06 0.03 0.02 0.01 0.01
0.00 0.00 0.00 0.00 0.00 0.00 0.00 0.00 0.00 0.00 0.00 0.00 0.01 0.02 0.03 0.05 0.08 0.12 0.18 0.23 0.26 0.29 0.31 0.32 0.32 0.30 0.27 0.21 0.17 0.14 0.16 0.16 0.14 0.16 0.19 0.15 0.11 0.08 0.05 0.03 0.02 0.01 0.01
0.00 0.00 0.00 0.00 0.00 0.00 0.00 0.00 0.00 0.00 0.00 0.00 0.00 0.01 0.02 0.03 0.06 0.09 0.11 0.14 0.16 0.19 0.23 0.28 0.30 0.23 0.15 0.11 0.11 0.10 0.08 0.06 0.05 0.07 0.14 0.15 0.11 0.09 0.07 0.04 0.02 0.01 0.01